Location: Varese
(45.8000°N, 8.8330°E)
Time: 07:49:35
(UTC+02:00)

ISS - Pass Details

Date: 17 May 2021
Orbit: 419 x 422 km, 51.6° (Epoch: 24 June)

Event Time Altitude Azimuth Distance (km) Brightness Sun altitude
Rises 00:30:36 0° 282° (WNW) 2,419 0.4 -23.9°
Reaches altitude 10° 00:32:53 10° 293° (WNW) 1,555 -0.5 -24.0°
Maximum altitude 00:36:02 30° 357° (N) 816 -1.7 -24.1°
Drops below altitude 10° 00:39:13 10° 61° (ENE) 1,569 -0.7 -24.2°
Sets 00:41:31 0° 72° (ENE) 2,444 0.2 -24.3°
